map of JOI home
JOI - Airport
Location
City:  Joinville, Santa Catarina, Brazil
Name:Lauro Carneiro de Loyola
ICAO:SBJV
IATA:JOI

Details
Type:Airport (Aerodrome, Airfield)
Latitude:2613'28"S (-26.224452)
Longitude:4847'51"W (-48.797363)
Datum:WGS 1984
Elevation:15 ft (5 m)
Variation:19.75W (WMM2015 magnetic declination)
-0.14 annual change
Runways:1
Longest:5381 × 148 ft (1640 × 45 m), paved

Time
Time Zone:UTC-3 (DST-2)
Local Time:

Weather
METAR:SBJV 201500Z 12013KT 9999 SCT025 22/15 Q1019
TAF:SBJV 200900Z 2012/2024 00000KT 9999 BKN020 TN20/2012Z TX26/2018Z
BECMG 2012/2014 12010KT SCT030
RMK PDJ

Related Locations
Nearby:
Farthest:MMD: 12443 mi / 20025 km
Minamidaito [Minami Daito Airport], Minamidaito Jima, 47, JP

Find:

   beyond  
but within

Other Information
Maps:
NOTAMs:
Links:
Sources:

  
  • flag of Brazil
  • flag of Santa Catarina
  

Sectional Chart

Flight Planning
at skyvector.com

Satellite Image

Google Maps Satellite view

 

Copyright © 2004-2018 Karl L. Swartz. All rights reserved.
The Great Circle Mapper name and logo are trademarks of the Great Circle Mapper.
All other trademarks mentioned herein belong to their respective owners.
Please see credits for attibutions and further copyright information.

  Follow gcmap on Facebook Follow gcmap on Twitter Follow gcmap on Google+ GCmap on LinkedIn

hCard Microformat

Geo Microformat